| time (UTC) | temp F | wind direction | speed MPH | gust MPH | rain 1hr in | rain 24hr in | rain mn in | humidity % | barometer mb |
| 20260505185445 | 47 | 215 | 6.0 | 8.0 | 0.00 | 0.00 | 0.00 | 59 | 1010.8 |
| 20260505183356 | 48 | 209 | 1.0 | 9.0 | 0.00 | 0.00 | 0.00 | 58 | 1010.8 |
| 20260505182329 | 48 | 220 | 5.0 | 11.0 | 0.00 | 0.00 | 0.00 | 56 | 1010.5 |
| 20260505181301 | 49 | 213 | 9.0 | 9.0 | 0.00 | 0.00 | 0.00 | 52 | 1010.5 |
| 20260505180235 | 49 | 226 | 6.0 | 6.0 | 0.00 | 0.00 | 0.00 | 51 | 1010.5 |
| 20260505175208 | 49 | 215 | 2.0 | 9.0 | 0.00 | 0.00 | 0.00 | 51 | 1010.2 |
| 20260505173126 | 50 | 219 | 4.0 | 9.0 | 0.00 | 0.00 | 0.00 | 50 | 1010.2 |
| 20260505172102 | 50 | 205 | 6.0 | 10.0 | 0.00 | 0.00 | 0.00 | 50 | 1010.2 |
| 20260505171029 | 50 | 246 | 5.0 | 10.0 | 0.00 | 0.00 | 0.00 | 49 | 1010.2 |
| 20260505165951 | 50 | 205 | 4.0 | 9.0 | 0.00 | 0.00 | 0.00 | 49 | 1010.2 |
| 20260505164919 | 49 | 207 | 4.0 | 12.0 | 0.00 | 0.00 | 0.00 | 52 | 1010.2 |
| 20260505163850 | 48 | 197 | 8.0 | 10.0 | 0.00 | 0.00 | 0.00 | 63 | 1010.2 |
| 20260505162831 | 48 | 185 | 6.0 | 12.0 | 0.00 | 0.00 | 0.00 | 62 | 1010.2 |
| 20260505161758 | 48 | 161 | 6.0 | 13.0 | 0.00 | 0.00 | 0.00 | 64 | 1010.2 |
| 20260505160726 | 48 | 152 | 2.0 | 12.0 | 0.00 | 0.00 | 0.00 | 66 | 1010.5 |
| 20260505152528 | 49 | 213 | 11.0 | 17.0 | 0.00 | 0.00 | 0.00 | 62 | 1010.5 |
| 20260505151501 | 48 | 184 | 9.0 | 17.0 | 0.00 | 0.00 | 0.00 | 65 | 1010.5 |
| 20260505150434 | 49 | 130 | 9.0 | 18.0 | 0.00 | 0.00 | 0.00 | 61 | 1010.5 |
| 20260505140153 | 48 | 166 | 12.0 | 18.0 | 0.00 | 0.00 | 0.00 | 58 | 1010.5 |
| 20260505124914 | 48 | 187 | 6.0 | 15.0 | 0.00 | 0.00 | 0.00 | 48 | 1010.8 |
| 20260505123845 | 49 | 188 | 8.0 | 18.0 | 0.00 | 0.00 | 0.00 | 49 | 1010.5 |
| 20260505122816 | 50 | 223 | 4.0 | 19.0 | 0.00 | 0.00 | 0.00 | 48 | 1010.5 |
| 20260505120735 | 54 | 164 | 5.0 | 10.0 | 0.00 | 0.00 | 0.00 | 30 | 1010.2 |
| 20260505113641 | 54 | 257 | 5.0 | 6.0 | 0.00 | 0.00 | 0.00 | 35 | 1010.5 |
| 20260505112619 | 53 | 194 | 1.0 | 7.0 | 0.00 | 0.00 | 0.00 | 32 | 1010.5 |
| 20260505111552 | 52 | 282 | 2.0 | 9.0 | 0.00 | 0.00 | 0.00 | 36 | 1010.5 |
| 20260505110531 | 52 | 273 | 1.0 | 10.0 | 0.00 | 0.00 | 0.00 | 36 | 1010.5 |
| 20260505101334 | 49 | 273 | 8.0 | 8.0 | 0.00 | 0.00 | 0.00 | 40 | 1010.8 |
| 20260505100238 | 48 | 63 | 1.0 | 5.0 | 0.00 | 0.00 | 0.00 | 39 | 1010.8 |
| 20260505095229 | 49 | 195 | 3.0 | 5.0 | 0.00 | 0.00 | 0.00 | 38 | 1010.5 |
| 20260505094203 | 49 | 205 | 3.0 | 6.0 | 0.00 | 0.00 | 0.00 | 38 | 1010.8 |
| 20260505093137 | 49 | 243 | 2.0 | 5.0 | 0.00 | 0.00 | 0.00 | 41 | 1010.8 |
| 20260505092115 | 49 | 265 | 1.0 | 6.0 | 0.00 | 0.00 | 0.00 | 39 | 1010.8 |
| 20260505091010 | 47 | 292 | 7.0 | 9.0 | 0.00 | 0.00 | 0.00 | 42 | 1010.8 |
| 20260505085946 | 47 | 325 | 4.0 | 9.0 | 0.00 | 0.00 | 0.00 | 41 | 1010.8 |
| 20260505084919 | 47 | 336 | 2.0 | 12.0 | 0.00 | 0.00 | 0.00 | 41 | 1010.5 |
| 20260505083918 | 47 | 329 | 3.0 | 10.0 | 0.00 | 0.00 | 0.00 | 42 | 1010.5 |
| 20260505082851 | 47 | 311 | 5.0 | 10.0 | 0.00 | 0.00 | 0.00 | 43 | 1010.5 |
| 20260505081819 | 46 | 341 | 8.0 | 12.0 | 0.00 | 0.00 | 0.00 | 43 | 1010.5 |
| 20260505080753 | 46 | 351 | 4.0 | 12.0 | 0.00 | 0.00 | 0.00 | 45 | 1010.5 |
| 20260505075719 | 45 | 336 | 4.0 | 10.0 | 0.00 | 0.00 | 0.00 | 45 | 1010.5 |
| 20260505074651 | 45 | 360 | 5.0 | 10.0 | 0.00 | 0.00 | 0.00 | 46 | 1010.5 |
| 20260505073624 | 45 | 308 | 4.0 | 9.0 | 0.00 | 0.00 | 0.00 | 46 | 1010.5 |
| 20260505072556 | 44 | 292 | 7.0 | 11.0 | 0.00 | 0.00 | 0.00 | 46 | 1010.2 |
| 20260505071531 | 44 | 343 | 2.0 | 10.0 | 0.00 | 0.00 | 0.00 | 46 | 1010.2 |
| 20260505070502 | 45 | 304 | 3.0 | 6.0 | 0.00 | 0.00 | 0.00 | 49 | 1010.2 |
| 20260505065435 | 45 | 291 | 1.0 | 5.0 | 0.00 | 0.00 | 0.00 | 49 | 1009.8 |
| 20260505064409 | 44 | 203 | 1.0 | 5.0 | 0.00 | 0.00 | 0.00 | 49 | 1009.8 |
| 20260505063340 | 44 | 22 | 0.0 | 5.0 | 0.00 | 0.00 | 0.00 | 51 | 1009.8 |
| 20260505062310 | 43 | 335 | 2.0 | 7.0 | 0.00 | 0.00 | 0.00 | 53 | 1010.2 |
| 20260505061241 | 43 | 58 | 2.0 | 7.0 | 0.00 | 0.00 | 0.00 | 52 | 1010.2 |
| 20260505060220 | 42 | 28 | 2.0 | 6.0 | 0.00 | 0.00 | 0.00 | 53 | 1009.8 |
| 20260505055151 | 41 | 51 | 2.0 | 4.0 | 0.00 | 0.00 | 0.00 | 55 | 1010.2 |
| 20260505054124 | 40 | 9 | 1.0 | 6.0 | 0.00 | 0.00 | 0.00 | 55 | 1010.2 |
| 20260505053057 | 40 | 5 | 2.0 | 8.0 | 0.00 | 0.00 | 0.00 | 56 | 1010.2 |
| 20260505052035 | 40 | 26 | 2.0 | 5.0 | 0.00 | 0.00 | 0.00 | 57 | 1009.8 |
| 20260505050958 | 40 | 355 | 1.0 | 8.0 | 0.00 | 0.00 | 0.00 | 58 | 1009.8 |
| 20260505041741 | 39 | 69 | 2.0 | 4.0 | 0.00 | 0.00 | 0.00 | 62 | 1009.5 |
| 20260505035651 | 39 | 140 | 0.0 | 5.0 | 0.00 | 0.00 | 0.00 | 60 | 1009.1 |
| 20260505033607 | 39 | 38 | 1.0 | 2.0 | 0.00 | 0.00 | 0.00 | 59 | 1009.1 |
| 20260505032535 | 39 | 64 | 1.0 | 6.0 | 0.00 | 0.00 | 0.00 | 57 | 1009.1 |
| 20260505031509 | 39 | 37 | 1.0 | 8.0 | 0.00 | 0.00 | 0.00 | 56 | 1009.1 |
| 20260505030445 | 39 | 98 | 1.0 | 6.0 | 0.00 | 0.00 | 0.00 | 55 | 1009.1 |
| 20260505025414 | 39 | 159 | 2.0 | 5.0 | 0.00 | 0.00 | 0.00 | 56 | 1008.8 |
| 20260505024413 | 39 | 96 | 3.0 | 4.0 | 0.00 | 0.00 | 0.00 | 55 | 1008.8 |
| 20260505023346 | 39 | 92 | 1.0 | 8.0 | 0.00 | 0.00 | 0.00 | 54 | 1008.8 |
| 20260505022319 | 40 | 84 | 2.0 | 5.0 | 0.00 | 0.00 | 0.00 | 53 | 1008.8 |
| 20260505021309 | 40 | 69 | 4.0 | 11.0 | 0.00 | 0.00 | 0.00 | 53 | 1008.8 |
| 20260505020235 | 40 | 335 | 0.0 | 8.0 | 0.00 | 0.00 | 0.00 | 52 | 1008.8 |
| 20260505015200 | 40 | 27 | 1.0 | 11.0 | 0.00 | 0.00 | 0.00 | 53 | 1008.8 |
| 20260505014131 | 40 | 319 | 4.0 | 9.0 | 0.00 | 0.00 | 0.00 | 52 | 1008.5 |
| 20260505013055 | 40 | 54 | 2.0 | 11.0 | 0.00 | 0.00 | 0.00 | 51 | 1008.5 |
| 20260505012034 | 41 | 96 | 1.0 | 9.0 | 0.00 | 0.00 | 0.00 | 52 | 1008.5 |
| 20260505010010 | 41 | 97 | 2.0 | 5.0 | 0.00 | 0.00 | 0.00 | 53 | 1008.1 |
| 20260505005000 | 41 | 217 | 1.0 | 7.0 | 0.00 | 0.00 | 0.00 | 54 | 1008.1 |
| 20260505002904 | 42 | 82 | 3.0 | 17.0 | 0.00 | 0.00 | 0.00 | 55 | 1007.8 |
| 20260505001900 | 42 | 22 | 3.0 | 14.0 | 0.00 | 0.00 | 0.00 | 56 | 1007.8 |
| 20260504235811 | 42 | 335 | 5.0 | 12.0 | 0.00 | 0.00 | 0.00 | 57 | 1007.8 |
| 20260504234738 | 43 | 295 | 3.0 | 15.0 | 0.00 | 0.00 | 0.00 | 56 | 1007.8 |
| 20260504233707 | 43 | 298 | 9.0 | 14.0 | 0.00 | 0.00 | 0.00 | 56 | 1007.8 |
| 20260504232639 | 43 | 200 | 4.0 | 10.0 | 0.00 | 0.00 | 0.00 | 55 | 1007.5 |
| 20260504231622 | 43 | 61 | 3.0 | 8.0 | 0.00 | 0.00 | 0.00 | 54 | 1007.5 |
| 20260504230556 | 44 | 77 | 2.0 | 8.0 | 0.00 | 0.00 | 0.00 | 56 | 1007.1 |
| 20260504225526 | 44 | 112 | 4.0 | 13.0 | 0.00 | 0.00 | 0.00 | 54 | 1006.8 |
| 20260504224453 | 44 | 119 | 4.0 | 15.0 | 0.00 | 0.00 | 0.00 | 55 | 1007.1 |
| 20260504223426 | 45 | 10 | 7.0 | 14.0 | 0.00 | 0.00 | 0.00 | 53 | 1007.1 |
| 20260504222358 | 45 | 51 | 5.0 | 15.0 | 0.00 | 0.00 | 0.00 | 54 | 1006.8 |
| 20260504220311 | 46 | 342 | 6.0 | 13.0 | 0.00 | 0.00 | 0.00 | 56 | 1006.4 |
| 20260504214237 | 46 | 321 | 9.0 | 13.0 | 0.00 | 0.00 | 0.00 | 56 | 1006.4 |
| 20260504213210 | 47 | 41 | 3.0 | 14.0 | 0.00 | 0.00 | 0.00 | 55 | 1006.4 |
| 20260504212135 | 47 | 326 | 6.0 | 15.0 | 0.00 | 0.00 | 0.00 | 55 | 1006.4 |
| 20260504211105 | 48 | 38 | 4.0 | 8.0 | 0.00 | 0.00 | 0.00 | 57 | 1006.1 |
| 20260504210036 | 48 | 34 | 4.0 | 12.0 | 0.00 | 0.00 | 0.00 | 56 | 1006.1 |
| 20260504205007 | 49 | 53 | 6.0 | 12.0 | 0.00 | 0.00 | 0.00 | 56 | 1005.8 |
| 20260504203940 | 49 | 134 | 4.0 | 10.0 | 0.00 | 0.00 | 0.00 | 59 | 1005.8 |
| 20260504202913 | 50 | 50 | 4.0 | 11.0 | 0.00 | 0.00 | 0.00 | 60 | 1005.8 |
| 20260504201845 | 51 | 196 | 3.0 | 14.0 | 0.00 | 0.00 | 0.00 | 62 | 1005.4 |
| 20260504194756 | 52 | 271 | 9.0 | 15.0 | 0.00 | 0.00 | 0.00 | 58 | 1004.7 |
| 20260504193736 | 52 | 272 | 8.0 | 17.0 | 0.00 | 0.00 | 0.00 | 57 | 1004.7 |
| 20260504192709 | 53 | 193 | 4.0 | 15.0 | 0.00 | 0.00 | 0.00 | 56 | 1004.4 |
| 20260504191639 | 53 | 159 | 4.0 | 15.0 | 0.00 | 0.00 | 0.00 | 56 | 1004.4 |
| 20260504190638 | 54 | 167 | 4.0 | 11.0 | 0.00 | 0.00 | 0.00 | 57 | 1004.4 |